Presure
195 196 199 201 202 200 201 203 202 202 204 203 196 192 189 198 201 181 196 176 173 189 186 178 182 189 186 182 174 180 186 202 195 206 192 205 156 206 168 182 159 178 184
184 187 191 193 196 197 200 203 207 208 197 191 194 201 203 201 191 182 180 173 185 184 181 176 183 183 181 180 179 211 203 197 194 196 196 193 200 191 198 183 159 159 210
199 189 205 206 192 194 198 199 199 199 197 197 194 188 190 190 188 184 180 185 180 176 181 184 183 183 183 184 183 191 189 191 186 191 190 168 185 152 164 184 167 194 176
189 186 185 184 184 186 186 187 185 182 183 189 189 184 179 174 180 186 188 188 187 184 185 187 184 187 198 190 194 197 190 190 190 189 187 185 187 158 183 151 170 159 177
196 197 196 195 195 197 199 200 199 205 211 211 215 211 236 232 208 210 215 216 216 209 209 207 202 203 198 199 195 194 192 192 193 189 192 190 187 183 180 173 149 184 168
180 176 173 174 178 183 184 185 186 186 189 190 189 189 189 235 232 230 224 220 225 214 215 211 207 204 202 196 198 196 194 196 195 191 189 186 187 187 187 158 180 170 169
186 185 182 180 177 176 177 178 177 178 177 174 173 174 177 176 196 223 213 208 204 214 212 210 207 208 199 204 202 199 193 190 194 192 195 189 188 188 186 184 183 180 139
190 190 190 190 187 188 189 195 185 184 185 186 192 192 195 192 185 180 184 190 183 178 174 180 191 181 185 196 194 196 191 186 189 196 195 191 190 188 190 188 183 185 187
197 193 189 187 189 191 192 190 190 189 188 189 188 185 185 186 197 196 190 192 189 183 184 183 180 183 183 187 189 187 183 181 186 189 181 178 181 182 184 187 188 187 183
196 199 198 197 195 194 195 193 192 195 197 200 197 196 197 194 193 191 193 193 192 151 190 188 183 185 185 182 181 181 183 185 180 189 186 189 191 190 190 180 181 182 178
189 192 195 196 197 197 207 206 203 197 196 204 208 210 209 212 207 202 201 199 196 196 196 193 189 186 159 185 183 188 190 162 173 186 185 190 197 195 184 183 187 189 207
186 189 192 195 191 193 198 200 201 198 197 196 197 197 191 195 197 196 203 203 205 207 205 205 205 206 208 212 212 211 205 207 211 210 204 212 215 213 214 171 206 205 193
223 216 210 208 207 206 207 204 201 203 195 195 196 201 192 201 200 200 203 226 230 221 228 230 232 234 225 215 215 214 215 220 220 209 209 216 217 214 210 206 211 205 201
209 209 209 218 218 204 200 208 214 223 224 223 220 216 216 216 213 212 214 225 207 223 214 207 211 212 213 234 234 238 224 237 238 229 230 259 255 240 233 225 235 203 218
212 215 214 218 215 217 214 213 221 220 225 228 231 232 230 230 227 226 233 195 219 222 209 200 218 222 234 241 244 236 240 239 229 253 248 231 244 258 261 263 263 250 273
228 233 237 235 227 246 233 227 227 228 232 228 225 193 226 223 220 213 232 232 227 219 233 228 215 230 249 251 250 232 243 241 227 263 269 252 227 286 231 234 295 293 288
252 251 250 251 254 249 245 241 238 237 237 239 237 233 227 238 231 224 248 244 234 237 237 236 223 233 263 282 284 288 289 237 281 280 252 287 287 249 253 260 277 290 315
248 245 245 252 246 244 246 234 236 242 243 240 239 237 227 238 251 240 231 217 245 243 246 263 270 278 277 280 286 279 265 242 250 246 254 273 271 255 293 336 369 371 371
241 228 229 243 246 243 242 234 238 243 244 248 241 240 240 247 249 245 242 250 253 254 251 264 234 239 236 236 239 245 230 247 255 349 329 351 364 361 344 350 348 350 349
237 236 233 235 237 240 231 228 236 247 249 250 252 251 254 254 252 248 256 277 249 263 267 241 237 250 259 301 370 354 358 357 346 347 350 349 341 340 332 334 339 336 339
269 271 272 274 258 264 252 248 253 265 265 268 244 252 226 263 253 258 240 237 295 296 400 361 376 368 361 355 352 345 350 342 337 338 335 333 330 328 326 326 327 326 333
320 316 314 316 242 253 250 255 261 307 308 347 345 343 343 342 354 398 396 389 386 353 352 365 357 355 349 339 338 337 335 332 314 319 320 318 320 320 322 322 327 324 315
328 327 332 358 351 347 342 338 331 335 338 338 336 373 395 392 383 382 376 375 366 363 357 349 347 341 334 331 332 329 315 318 301 313 298 314 315 312 310 321 320 305 368
305 308 314 318 342 338 333 329 322 322 321 336 386 381 378 372 370 367 363 360 355 352 345 335 333 328 322 331 316 311 282 289 285 313 308 313 310 306 303 319 300 367 357
330 339 360 352 344 337 327 323 319 328 326 352 371 367 364 358 357 349 348 343 344 335 333 329 327 322 311 308 273 291 299 304 314 309 313 320 308 290 313 299 352 349 350
320 319 312 320 353 338 335 321 330 321 363 366 360 360 356 351 347 347 340 337 333 327 326 324 323 318 282 286 309 312 311 313 313 318 321 319 296 310 299 279 351 338 334
Wind_Speed
52 52 52 52 52 52 52 52 52 51 50 49 50 51 53 51 49 53 50 55 55 52 51 52 51 51 50 49 48 48 47 45 46 43 44 41 54 40 61 47 55 45 48
52 52 52 52 52 53 52 52 52 51 51 52 52 51 51 51 53 55 56 57 55 55 55 55 54 54 53 52 52 49 49 49 48 46 47 46 43 46 44 55 65 51 43
51 53 51 50 54 55 54 54 54 54 54 53 53 56 56 56 57 57 59 58 59 60 59 58 57 56 57 56 56 53 53 50 53 51 50 56 52 64 54 50 65 50 55
53 55 57 58 59 60 61 60 61 61 61 59 58 59 60 61 62 61 60 60 60 61 61 61 62 60 55 58 56 53 57 57 56 57 58 58 58 59 58 62 61 64 60
54 54 54 56 57 58 58 59 59 58 58 58 58 58 52 51 57 57 55 55 55 57 57 57 59 58 61 59 62 61 61 62 61 62 61 62 62 63 62 59 66 61 65
59 61 62 63 63 63 63 63 63 63 62 61 62 62 60 49 49 49 50 51 52 55 55 58 60 60 62 63 63 64 64 64 65 66 67 69 68 68 68 63 66 63 66
61 62 63 65 67 70 71 69 70 70 70 71 71 71 68 67 60 51 54 56 57 55 57 59 61 62 64 65 66 67 68 70 69 70 71 73 74 74 74 74 73 70 70
66 64 65 68 70 70 71 71 72 72 73 72 70 69 68 69 70 71 69 67 69 70 71 69 66 70 70 68 70 70 73 75 76 75 77 79 80 81 80 80 78 78 78
71 72 72 73 73 73 74 75 75 74 75 75 75 73 73 72 69 71 72 71 72 74 74 75 75 75 75 76 77 79 80 81 82 84 83 82 84 83 84 85 85 85 84
77 78 79 80 81 80 79 79 79 79 79 78 78 78 76 75 75 76 77 77 78 61 80 81 81 81 82 82 83 84 85 87 87 89 90 92 93 94 94 88 88 88 86
80 81 82 82 83 82 83 83 83 84 84 82 81 79 78 77 78 81 81 81 83 84 85 86 87 86 67 88 89 90 92 71 83 96 97 99 100 101 97 96 100 100 94
85 87 87 87 84 85 87 88 89 90 88 87 85 84 79 82 82 82 82 82 84 86 87 88 90 91 92 93 94 95 96 96 97 98 100 101 101 102 102 87 102 102 95
89 92 94 94 95 94 93 91 93 93 92 92 91 92 87 90 90 89 89 90 91 90 90 89 89 90 93 95 96 96 97 100 103 103 102 105 105 106 106 106 108 108 105
87 90 92 93 97 94 90 92 95 98 98 98 99 98 97 97 96 95 95 95 90 92 93 94 96 97 99 94 97 98 100 101 102 103 104 104 105 109 110 110 109 110 108
93 94 96 98 99 101 100 97 101 101 100 101 102 101 101 101 99 98 101 94 93 95 98 100 101 102 102 105 104 101 102 101 105 108 108 107 108 110 112 115 116 114 116
107 107 106 106 104 105 107 106 104 104 105 103 100 90 100 95 93 94 99 98 98 96 100 101 104 101 107 111 110 103 103 108 110 113 114 110 113 119 105 114 122 122 116
104 104 106 106 104 103 107 110 110 109 108 110 110 108 102 108 102 96 113 108 100 104 104 103 102 104 117 114 114 114 116 102 113 112 111 113 114 104 105 106 109 112 113
103 104 105 108 106 106 110 105 108 112 112 110 110 110 101 109 118 109 102 99 113 110 108 115 119 115 115 114 113 106 105 97 100 100 103 108 110 110 108 92 81 81 84
108 100 101 111 110 110 111 107 110 113 115 117 111 112 113 118 120 117 112 116 120 120 115 120 98 99 96 98 100 101 102 104 108 77 80 75 70 72 74 72 73 75 77
110 110 109 111 111 114 108 106 112 121 122 122 123 123 125 124 121 117 122 119 113 118 117 106 104 111 109 95 66 69 66 65 67 67 66 65 67 68 70 70 68 70 73
110 110 110 112 117 118 122 123 122 121 122 122 117 116 98 119 116 118 110 109 93 95 64 76 64 64 63 64 62 63 61 61 62 63 64 65 65 64 64 66 66 66 66
83 84 85 88 110 110 111 113 115 95 95 83 85 86 87 87 83 66 63 61 59 71 70 59 60 57 58 60 60 60 60 59 61 62 61 62 62 62 61 61 60 60 64
78 79 78 70 73 75 77 77 81 81 80 81 81 70 61 61 62 60 59 58 58 57 57 58 56 57 59 60 59 59 61 59 58 58 61 59 59 62 61 58 55 60 46
79 79 78 77 71 72 73 75 76 76 77 74 55 56 57 57 57 57 57 56 55 55 56 57 57 59 61 59 60 60 58 59 59 57 58 57 58 60 60 54 56 44 44
69 67 61 64 66 67 68 70 70 68 68 60 54 54 53 55 55 57 55 56 54 57 58 58 59 60 61 61 60 60 60 59 57 57 56 55 54 57 56 56 48 47 43
69 68 70 67 60 61 62 65 63 65 53 52 53 52 52 53 53 54 55 56 57 58 59 59 59 59 61 63 61 60 59 59 58 57 55 51 51 49 52 57 46 47 43
Wind_Direction
269 270 271 271 272 273 273 273 273 273 272 271 269 268 268 268 267 267 265 270 272 267 266 268 267 265 264 264 265 266 265 256 256 255 255 254 252 254 238 256 250 234 232
267 269 271 272 273 273 273 273 273 272 269 268 268 268 267 266 266 266 266 270 266 266 267 268 266 265 265 264 265 258 258 258 257 255 254 254 252 249 249 243 246 254 252
269 269 271 272 269 270 271 271 271 270 268 266 265 266 266 266 265 265 266 264 265 266 266 264 263 263 264 263 263 259 258 255 255 253 251 247 251 240 254 246 241 251 244
268 268 268 269 269 269 269 269 270 270 270 269 267 266 266 268 267 266 265 264 263 263 262 262 263 261 257 258 256 252 255 253 251 251 250 250 248 244 248 246 242 248 244
268 268 269 269 270 271 271 271 271 272 273 273 272 272 275 272 268 267 265 262 260 258 256 256 256 254 254 252 253 253 254 255 254 255 253 253 253 253 253 251 248 252 246
265 267 268 269 270 270 270 270 270 270 271 271 271 271 269 269 266 263 261 260 257 257 256 255 254 254 253 254 253 253 254 252 252 254 254 255 254 253 253 247 254 251 250
265 265 267 268 268 268 269 270 271 271 271 271 272 273 272 271 269 262 261 260 259 256 255 254 254 254 255 254 254 254 255 256 254 254 252 255 256 255 256 257 257 256 253
273 272 271 270 270 271 272 272 272 272 272 272 272 272 271 270 270 270 267 264 265 266 266 263 257 261 259 255 255 253 254 256 256 252 251 253 254 256 255 255 258 259 258
275 274 274 273 272 272 272 273 273 273 273 273 272 272 271 271 268 267 267 264 263 266 264 263 263 261 261 260 258 258 260 261 258 256 260 262 261 261 261 259 258 257 258
277 276 275 275 275 276 275 275 275 274 273 272 272 272 271 271 270 269 268 267 266 265 262 261 262 261 260 260 260 260 259 258 261 257 258 257 256 257 258 262 261 260 261
278 277 276 277 277 277 276 276 276 276 276 274 273 272 271 270 268 268 267 267 266 266 264 263 263 262 265 261 261 260 259 265 262 259 260 258 256 257 262 263 261 259 254
280 278 278 279 280 280 279 278 277 277 277 278 277 276 275 275 273 271 269 268 266 264 264 263 264 263 263 261 260 260 261 261 260 259 259 259 257 256 256 257 255 255 258
271 271 271 273 273 273 274 274 275 274 275 275 275 274 275 274 274 273 272 274 273 271 270 269 269 269 266 264 263 263 262 261 261 260 260 260 259 258 257 257 257 257 257
274 273 273 273 272 273 274 274 273 273 273 273 273 273 273 272 272 273 274 274 273 274 271 271 271 269 268 272 270 269 268 267 266 263 263 269 267 262 261 261 263 258 260
277 275 274 273 272 272 274 276 275 275 275 274 274 273 273 273 273 273 275 269 274 273 268 268 269 270 274 275 274 271 271 269 266 272 269 264 266 270 269 267 266 260 265
278 278 275 275 274 274 273 274 274 274 274 275 276 265 276 275 275 271 277 276 274 270 275 271 268 272 277 276 275 267 271 268 264 273 273 267 265 273 270 265 269 267 265
273 272 272 273 272 271 271 271 273 274 275 274 275 276 277 278 276 274 279 278 276 276 276 274 269 274 278 276 275 275 274 273 274 274 267 273 272 265 266 267 269 268 267
276 277 277 275 276 275 273 276 277 276 276 276 277 278 277 277 278 277 276 269 279 278 279 278 279 276 277 278 277 274 275 272 271 270 271 274 273 269 271 269 266 266 265
278 279 279 278 277 277 276 278 277 277 277 277 277 278 278 278 278 278 279 280 280 280 281 279 273 274 273 273 274 275 268 274 274 270 270 269 268 269 269 268 268 267 267
276 277 278 278 278 277 279 279 279 278 277 277 277 277 276 277 278 279 280 276 278 277 275 278 277 276 275 273 270 272 268 269 270 270 270 270 268 269 269 269 268 267 267
272 271 271 270 271 271 273 275 274 272 272 275 277 276 279 276 277 276 278 279 277 277 273 273 272 271 270 270 268 268 268 268 268 269 270 270 270 268 268 268 269 269 269
275 275 275 274 273 274 275 275 275 275 275 275 275 276 276 277 277 275 275 274 272 274 273 268 268 267 266 267 268 268 268 268 269 270 271 271 272 272 272 271 273 272 269
276 276 275 274 274 274 274 274 273 273 274 274 275 275 276 275 275 275 274 272 270 268 267 267 266 265 265 266 266 266 268 268 269 269 271 271 272 272 272 275 273 271 271
277 276 275 274 273 273 273 273 274 275 275 274 279 277 276 275 274 272 271 268 268 266 264 265 264 264 266 264 266 266 267 268 268 269 270 271 271 272 273 277 273 271 271
277 276 273 272 273 273 274 275 276 277 276 277 275 273 271 269 268 267 267 266 265 264 264 264 263 264 265 267 268 268 268 269 269 269 270 270 268 270 277 275 270 270 269
277 276 277 276 274 275 276 277 278 278 276 276 275 274 272 270 268 267 265 264 263 262 263 264 264 264 268 269 268 268 269 269 270 272 273 271 265 273 272 273 262 267 269